Location: Leipzig
(51.3397°N, 12.3731°E)
Time: 19:29:21
(UTC+01:00)

ISS - Pass Details

Date: 21 October 2025
Orbit: 414 x 421 km, 51.6° (Epoch: 07 November)

Event Time Altitude Azimuth Distance (km) Brightness Sun altitude
Exits shadow 04:48:47 14° 114° (ESE) 1,269 -0.8 -27.9°
Drops below altitude 10° 04:49:47 10° 99° (E) 1,503 -0.2 -27.7°
Sets 04:52:23 0° 79° (ENE) 2,373 1.3 -27.3°
